User: anonymous   Login
Location: Foligno
(42.9600°N, 12.7050°E)
Time: 19:36:19
(UTC+02:00)
Language:

Hubble Space Telescope - Orbit

View from above orbital plane
View from above orbital plane
View from above satellite
View from above satellite

Ground track
Ground track

The orbit data is extracted from the following two-line orbital elements,

1 20580U 90037B   19292.88808856 +.00000391 +00000-0 +12827-4 0  9995
2 20580 028.4686 117.2735 0002726 014.2675 124.1550 15.09283106419433
Epoch (UTC): 19 October 2019 21:18:50
Eccentricity: 0.0002726
inclination: 28.4686°
perigee height: 536 km
apogee height: 540 km
right ascension of ascending node: 117.2735°
argument of perigee: 14.2675°
revolutions per day: 15.09283106
mean anomaly at epoch: 124.1550°
orbit number at epoch: 41943

The dashed part of the orbit path shows where the satellite is in the earth's shadow,  

DLR